User: anonymous   Login
Location: *
(45.9500°N, 9.0833°E)
Time: 12:28:26
(UTC+00:00)
Language:

GP-B - Orbit

View from above orbital plane
View from above orbital plane
View from above satellite
View from above satellite

Ground track
Ground track

The orbit data is extracted from the following two-line orbital elements,

1 28230U 04014A   21137.91389539  .00000137  00000-0  16359-4 0  9994
2 28230  89.8140  90.9050 0003384  90.0905 270.0706 14.78808129377693
Epoch (UTC): 17 May 2021 21:56:00
Eccentricity: 0.0003384
inclination: 89.8140°
perigee height: 631 km
apogee height: 635 km
right ascension of ascending node: 90.9050°
argument of perigee: 90.0905°
revolutions per day: 14.78808129
mean anomaly at epoch: 270.0706°
orbit number at epoch: 37769

The dashed part of the orbit path shows where the satellite is in the earth's shadow,  

DLR